Waarnemingen

Advertentie
Mijn weer
Elsenborn, België (6496): temperatuur & dauwpunt: 19.06.2019 16:00:00 - 25.06.2019 16:00:00 (CEST)Elsenborn, België (6496): windsnelheid & windstoten: 19.06.2019 16:00:00 - 25.06.2019 16:00:00 (CEST)Elsenborn, België (6496): windrichting: 19.06.2019 16:00:00 - 25.06.2019 16:00:00 (CEST)Elsenborn, België (6496): luchtdruk: 19.06.2019 16:00:00 - 25.06.2019 16:00:00 (CEST)Elsenborn, België (6496): zicht: 19.06.2019 16:00:00 - 25.06.2019 16:00:00 (CEST)
Datum & Tijd tt [°C] td [°C] ff [km/u] ff [kn] fx [km/u] fx [kn] dd ppp [hPa] vv [km]
25.06.2019 16:00:00 30,0 14,4 14 8 32 18 ZW 1016,5 20
25.06.2019 15:00:00 29,8 14,8 14 8 40 21 ZZW 1016,3 20
25.06.2019 14:00:00 29,7 13,1 14 8 - - ZZW 1016,2 20
25.06.2019 13:00:00 28,9 14,5 14 8 29 16 Z 1016,2 20
25.06.2019 12:00:00 27,4 16,5 13 7 25 14 Z 1016,5 10
25.06.2019 11:00:00 26,6 16,6 11 6 - - Z 1016,6 1,5
25.06.2019 10:00:00 25,5 16,5 11 6 25 14 Z 1016,5 2,8
25.06.2019 09:00:00 23,6 15,8 7 4 18 10 Z 1016,7 20
25.06.2019 08:00:00 20,4 16,9 4 2 - - N 1017,2 20
25.06.2019 07:00:00 17,2 15,3 4 2 4 2 N 1017,8 20
25.06.2019 06:00:00 15,9 14,1 4 2 7 4 N 1017,8 20
25.06.2019 05:00:00 15,5 14,0 4 2 - - N 1018,1 18
25.06.2019 04:00:00 15,3 14,0 4 2 7 4 N 1018,2 20
25.06.2019 03:00:00 15,6 14,2 4 2 7 4 N 1018,6 17
25.06.2019 02:00:00 16,4 14,6 4 2 - - N 1019,0 20
25.06.2019 01:00:00 17,6 14,7 7 4 11 6 OZO 1018,7 20
25.06.2019 00:00:00 16,6 14,3 4 2 11 6 N 1019,2 20
24.06.2019 23:00:00 17,2 14,7 5 3 - - OZO 1019,1 7
24.06.2019 22:00:00 19,2 15,5 4 2 11 6 N 1018,5 20
24.06.2019 21:00:00 23,5 15,1 7 4 18 10 ZO 1017,2 20
24.06.2019 20:00:00 26,2 15,2 7 4 - - ZO 1016,6 20
24.06.2019 19:00:00 27,6 14,9 7 4 14 8 ZO 1016,6 20
24.06.2019 18:00:00 28,5 14,8 7 4 18 10 ZZO 1016,2 20
24.06.2019 17:00:00 27,9 14,7 7 4 - - ZO 1016,5 20
24.06.2019 16:00:00 28,2 14,4 11 6 25 14 Z 1016,6 20
24.06.2019 15:00:00 27,6 13,9 7 4 25 14 Z 1016,6 20
24.06.2019 14:00:00 26,9 13,9 11 6 - - ZZO 1016,8 20
24.06.2019 13:00:00 25,6 14,5 14 8 29 16 ZZO 1017,0 20
24.06.2019 12:00:00 25,0 14,3 15 8 32 18 ZO 1017,2 10
24.06.2019 11:00:00 23,7 14,3 16 9 - - ZZO 1017,7 10
24.06.2019 10:00:00 22,6 14,4 16 9 32 18 ZZO 1017,8 6
24.06.2019 09:00:00 21,2 14,6 18 10 32 18 ZO 1018,1 20
24.06.2019 08:00:00 19,7 14,8 11 6 - - ZO 1018,3 20
24.06.2019 07:00:00 18,7 14,3 11 6 22 12 ZZO 1018,5 20
24.06.2019 06:00:00 17,7 14,1 7 4 18 10 ZO 1018,8 20
24.06.2019 05:00:00 18,0 14,0 7 4 - - ZO 1018,7 20
24.06.2019 04:00:00 16,5 13,9 7 4 14 8 ZO 1018,8 20
24.06.2019 03:00:00 15,8 13,2 4 2 14 8 N 1019,3 19
24.06.2019 02:00:00 18,5 13,7 7 4 - - ZO 1018,7 20
24.06.2019 01:00:00 15,0 13,4 7 4 11 6 OZO 1019,6 20
24.06.2019 00:00:00 15,1 13,5 4 2 7 4 N 1019,3 20
23.06.2019 23:00:00 16,4 13,5 4 2 - - N 1019,0 20
23.06.2019 22:00:00 19,0 13,7 7 4 14 8 ZO 1017,8 20
23.06.2019 21:00:00 21,6 13,6 7 4 22 12 ZO 1017,1 20
23.06.2019 20:00:00 23,1 13,8 11 6 - - ZO 1016,5 20
23.06.2019 19:00:00 23,5 13,3 11 6 29 16 ZO 1016,3 20
23.06.2019 18:00:00 23,8 13,1 14 8 29 16 ZO 1016,5 19
23.06.2019 17:00:00 24,6 12,8 14 8 - - ZO 1016,3 20
23.06.2019 16:00:00 24,3 13,1 14 8 36 19 ZO 1016,5 16
23.06.2019 15:00:00 25,1 14,0 18 10 36 19 OZO 1016,2 20
23.06.2019 14:00:00 24,0 13,8 22 12 - - ZO 1016,7 17
23.06.2019 13:00:00 22,8 13,3 18 10 40 21 OZO 1017,2 20
23.06.2019 12:00:00 22,9 12,8 25 14 40 21 OZO 1016,7 20
23.06.2019 11:00:00 22,4 13,2 13 7 - - OZO 1017,3 10
23.06.2019 10:00:00 21,3 12,8 7 4 18 10 O 1017,8 20
23.06.2019 09:00:00 19,5 13,1 4 2 14 8 N 1018,5 20
23.06.2019 08:00:00 16,5 12,8 4 2 - - N 1018,7 19
23.06.2019 07:00:00 12,6 11,1 4 2 4 2 N 1019,7 13
23.06.2019 06:00:00 8,6 8,0 4 2 4 2 N 1020,7 19
23.06.2019 05:00:00 9,0 8,4 4 2 - - N 1020,5 8
23.06.2019 04:00:00 9,3 8,9 4 2 7 4 - 1020,5 4,6
23.06.2019 03:00:00 9,6 9,0 4 2 7 4 N 1020,7 10
23.06.2019 02:00:00 10,8 10,1 4 2 - - N 1020,3 10
23.06.2019 01:00:00 12,4 11,0 4 2 7 4 N 1020,0 16
23.06.2019 00:00:00 13,5 11,3 4 2 4 2 N 1019,7 20
22.06.2019 23:00:00 14,3 11,2 4 2 - - N 1019,2 20
22.06.2019 22:00:00 16,5 11,2 7 4 14 8 NO 1018,6 20
22.06.2019 21:00:00 18,7 11,3 7 4 18 10 NO 1018,1 20
22.06.2019 20:00:00 19,5 10,1 11 6 - - NO 1017,7 20
22.06.2019 19:00:00 21,6 9,9 11 6 22 12 NO 1017,2 20
22.06.2019 18:00:00 21,2 9,2 7 4 25 14 NO 1017,3 17
22.06.2019 17:00:00 20,9 9,9 11 6 - - NO 1017,7 20
22.06.2019 16:00:00 21,5 11,5 7 4 22 12 NO 1017,7 20
22.06.2019 15:00:00 19,9 9,1 7 4 22 12 O 1018,6 20
22.06.2019 14:00:00 19,3 9,6 14 8 - - ONO 1019,1 17
22.06.2019 13:00:00 18,5 10,7 11 6 25 14 NNO 1019,6 20
22.06.2019 12:00:00 18,0 10,2 14 8 25 14 NO 1019,7 20
22.06.2019 11:00:00 18,1 9,9 11 6 - - ONO 1019,6 20
22.06.2019 10:00:00 17,0 8,9 7 4 18 10 ONO 1020,1 20
22.06.2019 09:00:00 15,6 9,5 11 6 18 10 O 1020,5 18
22.06.2019 08:00:00 12,6 10,4 7 4 - - NO 1021,2 12
22.06.2019 07:00:00 10,3 9,2 4 2 7 4 - 1022,0 7
22.06.2019 06:00:00 7,8 7,1 4 2 7 4 N 1022,7 3,6
22.06.2019 05:00:00 8,1 7,0 4 2 - - N 1022,7 10
22.06.2019 04:00:00 8,0 6,6 4 2 4 2 N 1023,2 14
22.06.2019 03:00:00 7,8 6,3 4 2 11 6 N 1023,5 19
22.06.2019 02:00:00 8,5 6,8 7 4 - - NO 1023,5 19
22.06.2019 01:00:00 7,9 6,7 7 4 11 6 NO 1023,7 16
22.06.2019 00:00:00 8,3 7,2 4 2 7 4 N 1023,3 20
21.06.2019 23:00:00 9,1 7,5 4 2 - - N 1022,8 20
21.06.2019 22:00:00 11,3 7,8 4 2 18 10 N 1022,0 20
21.06.2019 21:00:00 14,5 8,0 11 6 18 10 N 1020,6 20
21.06.2019 20:00:00 14,8 7,2 4 2 - - N 1020,3 20
21.06.2019 19:00:00 15,3 7,2 7 4 18 10 NNW 1020,1 20
21.06.2019 18:00:00 16,3 6,6 7 4 14 8 NW 1019,7 20
21.06.2019 17:00:00 16,2 6,1 7 4 - - W 1019,7 20
21.06.2019 16:00:00 16,3 5,8 4 2 14 8 N 1019,7 20
21.06.2019 15:00:00 16,2 5,8 11 6 18 10 NW 1019,7 20
21.06.2019 14:00:00 16,1 7,1 7 4 - - NW 1019,6 20
21.06.2019 13:00:00 15,6 6,1 7 4 22 12 WNW 1019,7 19
21.06.2019 12:00:00 15,6 4,9 11 6 22 12 W 1019,6 20
21.06.2019 11:00:00 14,2 5,7 14 8 - - WZW 1019,6 19
21.06.2019 10:00:00 13,1 6,2 11 6 22 12 WZW 1019,6 20
21.06.2019 09:00:00 12,1 7,6 7 4 14 8 W 1019,6 20
21.06.2019 08:00:00 10,6 8,2 7 4 - - W 1019,6 20
21.06.2019 07:00:00 6,3 5,4 4 2 0 0 N 1020,3 20
21.06.2019 06:00:00 5,0 4,6 4 2 4 2 N 1020,3 18
21.06.2019 05:00:00 5,8 5,2 4 2 - - N 1019,8 17
21.06.2019 04:00:00 7,7 7,0 4 2 7 4 N 1019,5 20
21.06.2019 03:00:00 9,3 8,0 4 2 7 4 N 1018,7 20
21.06.2019 02:00:00 9,6 8,5 4 2 - - N 1018,6 20
21.06.2019 01:00:00 10,6 8,8 4 2 11 6 N 1018,2 20
21.06.2019 00:00:00 - - - - - - - - -
20.06.2019 23:00:00 11,5 9,8 4 2 - - N 1017,0 20
20.06.2019 22:00:00 13,6 10,9 4 2 18 10 N 1016,1 20
20.06.2019 21:00:00 15,0 11,2 7 4 22 12 W 1015,2 20
20.06.2019 20:00:00 16,1 12,5 11 6 - - W 1014,3 19
20.06.2019 19:00:00 15,5 11,9 7 4 18 10 W 1014,1 20
20.06.2019 18:00:00 15,9 11,9 11 6 18 10 W 1013,7 20
20.06.2019 17:00:00 15,3 12,6 9 5 - - W 1013,7 10
20.06.2019 16:00:00 14,0 12,7 11 6 18 10 WNW 1014,0 13
20.06.2019 15:00:00 14,3 13,8 7 4 18 10 W 1013,3 20
20.06.2019 14:00:00 14,0 14,0 8 4 - - WNW - 5
20.06.2019 13:00:00 - - - - - - - - -
20.06.2019 12:00:00 - - - - - - - - -
20.06.2019 11:00:00 - - - - - - - - -
20.06.2019 10:00:00 - - - - - - - - -
20.06.2019 09:00:00 - - - - - - - - -
20.06.2019 08:00:00 - - - - - - - - -
20.06.2019 07:00:00 - - - - - - - - -
20.06.2019 06:00:00 - - - - - - - - -
20.06.2019 05:00:00 - - - - - - - - -
20.06.2019 04:00:00 - - - - - - - - -
20.06.2019 03:00:00 - - - - - - - - -
20.06.2019 02:00:00 14,3 13,5 11 6 - - WZW 1010,2 20
20.06.2019 01:00:00 14,8 14,2 11 6 14 8 ZW 1010,5 19
20.06.2019 00:00:00 14,7 14,1 7 4 14 8 W 1010,2 15
19.06.2019 23:00:00 15,0 14,3 7 4 - - ZZW 1010,0 16
19.06.2019 22:00:00 15,3 14,4 5 3 11 6 WZW 1010,0 7
19.06.2019 21:00:00 15,9 14,9 4 2 7 4 N 1009,2 20
19.06.2019 20:00:00 16,0 15,0 4 2 - - - - 10
19.06.2019 19:00:00 22,0 12,0 21 11 - - ZW - 10
19.06.2019 18:00:00 23,6 11,2 18 10 36 19 Z 1006,6 20
19.06.2019 17:00:00 23,9 11,4 18 10 - - Z 1006,7 20
19.06.2019 16:00:00 24,2 10,7 14 8 29 16 Z 1007,2 20

tt = temperatuur
td = dauwpunt
ff = windsnelheid
fx = windstoten
dd = windrichting
ppp = luchtdruk
vv = zicht

Weerstations in de omgeving